Location: Unspecified
(0.0000°N, 0.0000°E)
Time: 12:09:23
(UTC+00:00)

Envisat - Pass Details

Date: 08 December 2019
Orbit: 764 x 766 km, 98.1° (Epoch: 11 December)

Event Time Altitude Azimuth Distance (km) Brightness Sun altitude
Rises 18:37:02 0° 175° (S) 3,231 6.5 -10.4°
Reaches altitude 10° 18:39:21 10° 178° (S) 2,302 5.8 -10.9°
Maximum altitude 18:44:21 61° 258° (WSW) 868 3.6 -12.1°
Drops below altitude 10° 18:49:20 10° 338° (NNW) 2,291 5.5 -13.2°
Sets 18:51:39 0° 341° (NNW) 3,214 6.2 -13.8°
